Weather History for El Paso, TX

Change the Weather History Date:

Tuesday, September 25, 2012

  Actual Average Record
Temperature  
Mean Temperature 76 °F 72 °F  
Max Temperature 91 °F 85 °F 96 °F (1977)
Min Temperature 61 °F 60 °F 45 °F (1889)
Degree Days  
Heating Degree Days 0 0  
Month to date heating degree days 6 0  
Since 1 July heating degree days 6 0  
Cooling Degree Days 11 8  
Month to date cooling degree days 296 283  
Year to date cooling degree days 2673 2212  
Growing Degree Days 26 (Base 50)    
Moisture  
Dew Point 32 °F    
Average Humidity 22    
Maximum Humidity 29    
Minimum Humidity 15    
Precipitation  
Precipitation T in 0.04 in 0.82 in (1978)
Month to date precipitation 0.58 1.32  
Year to date precipitation 5.00 7.64  
Snow  
Snow 0.00 in - - ()
Month to date snowfall 0.0  
Since 1 July snowfall 0.0  
Since 1 September snowfall 0.0  
Snow Depth 0.00 in    
Sea Level Pressure  
Sea Level Pressure 29.80 in    
Wind  
Wind Speed 5 mph (SSW)    
Max Wind Speed 16 mph    
Max Gust Speed 21 mph    
Visibility 10 miles    
Events      
T = Trace of Precipitation, MM = Missing Value Source: NWS Daily Summary

Daily Weather History Graph

Daily Weather History Graph

Search for Another Location

Airport:

Trip Planner

Search our weather history database for the weather conditions in past years. The results will help you decide how hot, cold, wet, or windy it might be!

Date:

Astronomy

Sep. 25, 2012 Rise Set
Actual Time 6:55 AM MDT 6:57 PM MDT
Civil Twilight 6:31 AM MDT 7:21 PM MDT
Nautical Twilight 6:03 AM MDT 7:50 PM MDT
Astronomical Twilight 5:34 AM MDT 8:18 PM MDT
Moon 4:11 PM MDT (9/25) 2:35 AM MDT (9/25)
Length of Visible Light 12h 50m
Length of Day
12h 01m
Waxing Gibbous, 80% of the Moon is Illuminated
Sep 25
Waxing Gibbous
Sep 29
Full
Oct 8
Last Quarter
Oct 15
New
Oct 21
First Quarter

Hourly Weather History & Observations

Time (MDT) Temp. Dew Point Humidity Pressure Visibility Wind Dir Wind Speed Gust Speed Precip Events Conditions
12:51 AM 68.0 °F 30.9 °F 25% 29.78 in 10.0 mi Calm Calm - N/A   Partly Cloudy
1:51 AM 71.6 °F 26.6 °F 19% 30.00 in 10.0 mi SSE 8.1 mph - N/A   Partly Cloudy
2:51 AM 69.1 °F 26.1 °F 20% 29.77 in 10.0 mi SSE 4.6 mph - N/A   Partly Cloudy
3:51 AM 66.9 °F 27.0 °F 22% 29.76 in 10.0 mi SE 6.9 mph - N/A   Partly Cloudy
4:51 AM 64.9 °F 27.0 °F 24% 29.77 in 10.0 mi North 3.5 mph - N/A   Partly Cloudy
5:51 AM 63.0 °F 27.0 °F 26% 29.78 in 10.0 mi East 4.6 mph - N/A   Scattered Clouds
6:51 AM 63.0 °F 27.0 °F 26% 29.82 in 10.0 mi NNW 5.8 mph - N/A   Scattered Clouds
7:51 AM 66.0 °F 28.0 °F 24% 29.84 in 10.0 mi NNE 3.5 mph - N/A   Mostly Cloudy
8:51 AM 73.0 °F 28.9 °F 20% 29.85 in 10.0 mi Calm Calm - N/A   Scattered Clouds
9:51 AM 73.9 °F 33.1 °F 22% 29.88 in 10.0 mi WSW 4.6 mph - 0.00 in   Mostly Cloudy
10:51 AM 78.1 °F 32.0 °F 19% 29.86 in 10.0 mi South 3.5 mph - N/A   Scattered Clouds
11:51 AM 84.0 °F 33.1 °F 16% 29.84 in 10.0 mi Variable 4.6 mph - N/A   Partly Cloudy
12:51 PM 86.0 °F 33.8 °F 15% 30.01 in 10.0 mi Variable 5.8 mph - N/A   Partly Cloudy
1:51 PM 90.0 °F 35.1 °F 14% 29.76 in 10.0 mi SW 13.8 mph 19.6 mph N/A   Scattered Clouds
2:51 PM 89.1 °F 35.1 °F 15% 29.75 in 10.0 mi SW 8.1 mph - N/A   Scattered Clouds
3:51 PM 88.0 °F 35.1 °F 15% 29.74 in 10.0 mi Calm Calm - N/A   Scattered Clouds
4:51 PM 89.1 °F 35.1 °F 15% 29.73 in 10.0 mi Variable 4.6 mph - N/A   Partly Cloudy
5:51 PM 87.8 °F 33.8 °F 15% 29.93 in 10.0 mi WSW 12.7 mph 19.6 mph N/A   Partly Cloudy
6:51 PM 86.0 °F 34.0 °F 16% 29.73 in 10.0 mi West 6.9 mph - N/A   Partly Cloudy
7:51 PM 82.9 °F 35.1 °F 18% 29.73 in 10.0 mi West 4.6 mph - N/A   Partly Cloudy
8:51 PM 80.1 °F 35.1 °F 20% 29.73 in 10.0 mi Calm Calm - N/A   Partly Cloudy
9:51 PM 80.1 °F 37.0 °F 21% 29.74 in 10.0 mi Calm Calm - N/A   Partly Cloudy
10:51 PM 73.0 °F 39.0 °F 29% 29.75 in 10.0 mi SE 5.8 mph - N/A   Scattered Clouds
11:51 PM 75.9 °F 39.9 °F 27% 29.73 in 10.0 mi Calm Calm - N/A   Scattered Clouds